Theta_e
288 288 288 288 288 287 287 288 288 288 289 290 291 292 292 293 293 293 294 294 294 294 294 295 295 296 298
288 288 288 288 287 287 287 287 288 288 289 290 290 290 292 293 293 293 293 294 293 293 293 293 293 293 294
287 288 288 288 287 287 287 287 287 287 288 289 289 290 291 292 292 292 292 292 292 292 292 292 293 293 293
288 287 287 287 287 287 286 286 286 287 287 288 289 289 289 289 290 291 291 290 291 291 291 291 292 293 292
288 288 287 287 287 286 287 286 287 287 287 287 287 287 288 288 288 289 290 290 290 291 291 291 292 292 292
287 287 286 286 286 286 286 286 286 287 286 286 286 287 287 287 288 289 290 290 291 290 290 291 290 290 291
286 286 286 284 285 285 285 286 286 285 285 286 286 286 287 287 288 289 290 290 290 290 290 289 289 290 291
285 283 283 284 284 284 285 284 284 284 284 285 286 285 284 285 287 287 288 287 288 288 288 289 290 290 291
282 282 283 283 283 283 282 282 283 283 283 284 284 284 283 283 285 285 285 285 286 286 287 287 289 290 290
281 281 281 281 281 281 281 281 281 281 283 282 282 283 282 282 284 283 283 283 284 285 286 286 287 288 288
281 281 281 281 281 281 281 281 280 281 281 282 282 282 282 282 282 282 282 283 284 284 284 284 286 287 288
280 280 280 280 280 280 281 281 281 281 281 281 281 281 281 281 282 282 283 284 284 285 285 285 285 286 287
279 279 279 279 280 280 281 281 281 282 282 282 282 282 282 281 281 282 283 284 284 285 286 285 286 285 286
280 280 280 280 280 280 280 280 280 282 283 283 283 283 282 282 282 282 283 283 284 285 285 285 285 285 286
279 280 280 280 280 280 281 280 279 279 281 284 284 284 284 284 282 283 284 285 285 285 285 285 284 284 284
280 280 280 280 279 280 281 281 279 281 282 283 283 284 284 285 285 284 285 285 285 285 285 285 284 284 285
280 280 280 280 280 280 281 281 281 282 283 284 283 282 276 279 284 284 283 283 283 283 284 284 283 283 284
Wind_Speed
21 25 26 26 28 27 27 25 24 23 23 23 23 23 24 24 24 24 23 21 20 18 19 18 19 20 20
23 28 27 27 29 31 30 27 25 24 23 23 23 21 21 21 22 19 16 14 15 14 16 18 19 18 19
24 26 29 29 32 31 31 31 28 28 24 23 21 19 18 20 18 14 15 12 12 12 13 15 18 16 15
24 22 23 29 29 26 25 23 29 30 27 20 19 18 20 19 18 16 15 14 14 16 18 19 17 15 15
18 21 23 22 20 23 21 22 25 20 21 22 26 28 24 20 18 16 15 15 17 18 20 17 13 15 15
20 21 21 22 26 21 17 18 10 15 23 24 22 27 27 23 18 17 16 17 17 16 14 14 17 18 17
22 20 21 25 25 20 19 19 15 24 25 21 22 23 24 18 15 14 16 14 14 14 16 18 18 18 17
16 23 24 24 22 22 20 19 20 21 21 14 16 17 23 20 14 11 12 14 13 11 13 15 18 18 13
18 19 18 18 18 19 19 17 16 16 20 9 11 21 21 20 10 12 8 12 14 15 14 14 12 9 8
20 19 18 18 17 15 17 14 15 11 5 18 20 15 9 12 7 20 23 21 17 16 16 15 14 11 7
20 21 20 19 18 18 16 16 15 16 22 17 16 21 12 15 18 22 16 18 18 14 13 13 11 11 11
20 20 21 23 22 20 17 17 17 21 24 19 16 18 17 12 12 20 25 20 14 13 11 9 8 9 10
16 17 19 22 21 20 21 21 22 17 12 13 15 18 17 16 15 18 15 16 18 9 2 10 7 7 9
15 18 18 18 19 20 22 23 21 21 17 15 12 13 18 21 20 22 19 8 14 15 14 11 7 7 7
19 20 21 22 23 22 23 21 13 16 23 21 19 14 13 17 15 16 16 14 10 9 6 4 5 6 7
21 22 22 23 23 24 21 21 19 20 22 19 19 19 12 4 8 10 13 9 7 7 3 3 6 5 5
21 22 22 22 21 23 22 22 23 22 20 15 13 13 3 2 5 9 11 11 10 8 6 4 6 8 6
Wind_Direction
313 322 324 328 331 328 327 325 321 317 314 312 306 299 292 290 293 287 280 275 281 283 287 292 298 300 313
313 321 321 326 327 327 329 326 322 319 314 311 308 301 297 297 297 301 295 288 293 296 298 299 301 302 299
306 313 317 323 326 326 327 324 321 318 312 310 303 308 303 303 303 300 309 304 305 301 298 301 303 301 305
311 311 314 320 320 315 315 315 313 319 321 317 312 313 315 309 305 291 281 283 290 289 289 294 290 291 295
311 314 315 313 304 308 302 315 319 336 326 327 317 314 314 306 306 291 278 290 294 290 289 281 291 299 298
317 310 310 308 306 298 312 317 312 320 326 315 315 316 318 320 301 295 285 288 291 297 296 294 299 299 289
313 317 327 330 328 319 317 310 309 319 317 306 312 319 336 322 315 300 295 295 296 298 298 296 292 291 290
319 321 318 318 317 315 316 319 315 311 319 307 322 334 335 335 329 316 312 309 302 305 306 303 288 278 275
318 319 323 323 323 324 333 331 318 312 323 332 322 325 323 320 317 320 334 317 308 299 298 304 311 268 264
329 329 332 333 333 328 328 318 313 311 323 326 312 324 315 304 300 304 306 306 303 292 283 285 285 312 292
332 333 337 340 339 334 329 322 306 286 293 305 296 296 288 294 307 307 317 319 317 301 289 277 273 263 268
335 330 333 334 334 331 329 323 312 299 303 298 281 289 289 289 288 304 316 321 317 306 307 298 271 255 251
329 327 326 327 329 331 336 335 326 328 329 313 295 295 287 272 278 287 303 313 314 304 324 319 312 261 258
331 327 327 327 327 334 336 341 332 336 349 344 322 296 287 285 283 282 292 276 301 307 303 301 302 282 270
337 334 333 335 334 341 340 337 324 315 330 349 352 338 297 289 283 294 308 311 319 324 310 307 302 291 280
343 343 340 338 334 335 341 340 331 335 337 345 357 0 353 340 330 326 354 345 342 339 309 303 323 330 287
346 345 342 341 337 340 342 341 338 338 340 349 346 0 353 314 329 4 14 5 359 359 357 341 307 304 309